Regional Weather Roundup
Issued by NWS

Home | Current Version | Previous Version | Graphics & Text | Print | Product List | Glossary On
Versions: 1 2 3 4 5 6 7 8 9 10 11 12 13 14 15 16 17 18 19 20 21 22 23 24 25 26 27 28
000
ASUS45 KCYS 300210
RWRWY

WYOMING REGIONAL WEATHER ROUNDUP
NATIONAL WEATHER SERVICE CHEYENNE WY
800 PM MDT FRI APR 29 2016

NOTE:  "FAIR" INDICATES FEW OR NO CLOUDS BELOW 12,000 FEET
WITH NO SIGNIFICANT WEATHER AND/OR OBSTRUCTIONS TO VISIBILITY.

WYZ001-300300-
YELLOWSTONE NATIONAL PARK

CITY           SKY/WX    TMP DP  RH WIND       PRES   REMARKS
LK YELLOWSTONE   N/A     34  26  72 CALM      29.93R
W YELLOWSTONE  NOT AVBL

$$
WYZ002>013-054>058-071-098>099-300300-
NORTHERN WYOMING

CITY           SKY/WX    TMP DP  RH WIND       PRES   REMARKS
JACKSON        CLOUDY    41  36  81 N14G23    29.87R
CODY           CLOUDY    41  32  70 W7        29.96R
GREYBULL       CLOUDY    50  29  44 S6        29.94R
WORLAND        CLOUDY    46  34  62 SE7       29.95R
SHERIDAN       CLOUDY    44  36  73 E6        30.00R
BUFFALO          N/A    N/A N/A N/A MISG      30.00R
GILLETTE       LGT RAIN  40  37  89 E7        30.00R
HULETT         CLOUDY    41  32  70 E6        30.03S
NEWCASTLE      CLOUDY    41  32  70 E9        30.00S

$$
WYZ014>020-022>026-101>103-300300-
CENTRAL WYOMING

CITY           SKY/WX    TMP DP  RH WIND       PRES   REMARKS
BIG PINEY      FAIR      41  25  53 SW8       29.87S
PINEDALE       CLOUDY    41  28  60 E8        29.88R
DUBOIS         CLOUDY    32  30  93 SE13G20   29.92S WCI  22
LANDER         LGT RAIN  35  34  96 CALM      29.95R FOG
RIVERTON       LGT RAIN  36  33  89 NE3       29.97R
CASPER         LGT RAIN  36  33  89 E13       29.95S WCI  27
DOUGLAS        CLOUDY    37  32  82 E13       29.97S WCI  29

$$
WYZ021-027>030-104>119-300300-
SOUTHERN WYOMING

CITY           SKY/WX    TMP DP  RH WIND       PRES   REMARKS
EVANSTON       FAIR      40  28  62 E7        29.86R
KEMMERER         N/A     37  28  70 CALM      29.88S
FORT BRIDGER   PTCLDY    39  34  81 E6        29.90F WCI  35
ROCK SPRINGS   CLOUDY    38  29  70 NE14      29.89R WCI  30
DIXON          FAIR      40  31  69 N6        29.86S
RAWLINS        CLOUDY    32  29  88 NE14      29.87S FOG     WCI  22
SARATOGA       DRIZZLE   34  34 100 S10G16    29.85S WCI  26
LARAMIE        LGT SNOW  29  27  92 NE6       29.88S FOG     WCI  23
CHEYENNE       SNOW      32  30  92 N9        29.89F VSB 1/2 WCI  24
TORRINGTON     LGT RAIN  36  34  92 NE3       29.95R
PINE BLUFFS    LGT SNOW  32  32 100 N5        29.92S WCI  27

$$




USA.gov is the U.S. government's official web portal to all federal, state and local government web resources and services.